Inscriptos

800 Electronico
Fecha Serie Viento Presión Humedad Temperatura
29-10-2017 Final_A
Andarivel Nombre Dia Mes Año Equipo Mejor Marca
Jose Sanchez 5 8 1987 FCMAX - 1.54.99
Larroza Nahuel 18 5 1998 AAMTE - 1.56.99
Arnold Cornelis 18 11 1995 CADAF - 1.57.17
Painemilla Marcos 9 12 1992 EBFAM - 1.57.99
Gargallo Matias 22 12 1998 UA - 1.58.00
Pardo Daniel 4 9 1976 ECOTF ARDA 1.58.28
Xavier Racedo 21 12 1997 AAMTE - 1.58.99
Caamano Tomas 17 1 1992 SAVBF 1.58.99
Ramirez Alexis 30 6 1996 EMACO ASCER 1.58.99
Cenatiempo Mariano 20 12 1992 ALUMN ABAH 1.59.99
Suarez Juan Cruz 27 12 1994 FCMAX - 1.59.99
Reyes Gabriel 28 6 1991 QUIRO 2.00.19
Perez Fabian Enzo 28 12 1994 AAY 2.00.99
Fairhurst Agosta Leonardo David 10 5 1993 CADAF - 2.01.46
Villordo Federico 18 2 1996 ECOTF ARDA 2.01.47
Moyano Rodrigo Alejandro 24 8 2000 MDLDZ - 2.01.99
Salguero Fernando 10 5 1993 PGARI 2.02.09
Niño Jorge Andres 11 2 1989 APLIS - 2.02.20
Brian Alan Sasso 23 4 2000 MFV - 2.02.99
Russo Tomas 26 3 1998 EMACO ASCER 2.02.99
Degeneve Martin 27 12 1997 EMACO ASCER 2.03.99
ESCOBAR HUGO NORBETO 6 6 1985 VYR ASA 2.04.99
Arroyo Santiago 10 1 1998 UAJGR - 2.04.99
Flores Paulo 1 4 2000 L�FA - 2.04.99
Holzmann Juan Pablo 2 2 1995 LCFAM - 2.04.99
Gallego Martin Ezequiel 26 2 1996 PGARI - 2.05.32
Jara Fernado Ezequiel 6 6 1990 EMCDC - 2.05.99
Gauna Brian Miguel 15 2 1994 JMCOR FMARP 2.05.99
CACERES PABLO DAVID 11 9 1995 EMA 2.05.99
Cardozo Francisco 15 5 1993 EMA 2.05.99
Maresca Nicolas 17 1 1992 EMA - 2.05.99
Sandoval David 13 4 1983 LÑFA - 2.06.99
Rotundo Molteni Ignacio 3 11 1992 LCFAM - 2.07.99
Manfe Juan Manuel 26 11 1997 L�FA 2.07.99
Godoy Matias Emanuel 13 9 1996 AMAYA AAZUL 2.08.00
Domecq Sebastian 8 10 1996 AAY - 2.08.99
Janus Alexis Jonathan 12 11 1993 JMCOR FMARP 2.08.99
Carrera Alan Gaston 8 7 1999 JMCOR FMARP 2.09.99
SISTERNA Juan 6 2 1999 AATAM AMA 2.10.09
Del Pino Mateo 1 4 2000 UA - 2.10.66
Crego Franco Nahuel 17 11 1995 LCFAM - 2.11.99
Nicolas Sales Sanchez 14 10 2000 EMAB - 2.12.00
Juan Pablo Lorenzo 10 1 2000 UA - 2.12.34
Martinez Matias 13 5 1975 EMA - 2.12.99
Desposito Juan 23 10 2000 AAY - 2.12.99
Sergio Zaiontz 27 8 1973 VYR ASA 2.12.99
Pablo Kalhofer 17 4 1976 LÑFA - 2.12.99
Mamone Lucas Fabian 28 10 1991 EBFAM 2.13.99
Contreras Carlos 5 4 2000 CMDB1 - 2.13.99
Pallero Gonzalo Agustin 14 9 1996 LÑFA - 2.14.99
Garcia Mauro 25 8 1967 L�FA 2.14.99
Darqui Elian 10 3 2000 LCFAM - 2.15.99
Diaz Damian 13 4 1986 AAY - 2.15.99
Hidalgo Oscar 10 8 1984 CADAF - 2.18.78
Ayala Dario Ezequiel 20 1 1996 CADAF - 2.18.87
Diaz Lautaro 2 9 1999 MUAVE - 2.18.99
Lema Lautaro Augusto 25 9 1990 MUAVE - 2.23.99
Moreyra Sebastian Alejandro 10 2 2000 LCFAM - 2.29.99
Villarreal Matias Joaquin 18 12 1999 MUAVE - 2.35.99
Orozco Sergio Osvaldo 11 1 1967 CADAF - 2.35.99
Pires Agustin 13 7 1998 EMACO ASCER 9.99.99